User: anonymous   Login
Location: ????????
(38.4362°N, 22.8767°E)
Time: 20:00:27
(UTC+00:00)
Language:

BREEZE-M DEB (TANK) - Orbit

View from above orbital plane
View from above orbital plane
View from above satellite
View from above satellite

Ground track
Ground track

The orbit data is extracted from the following two-line orbital elements,

1 39362U 13058C   24165.34896709  .00004530  00000-0  10871-2 0  9995
2 39362  49.5077 161.2947 5166517  54.8817 343.3351  5.32014351204126
Epoch (UTC): 13 June 2024 08:22:30
Eccentricity: 0.5166517
inclination: 49.5077°
perigee height: 321 km
apogee height: 14643 km
right ascension of ascending node: 161.2947°
argument of perigee: 54.8817°
revolutions per day: 5.32014351
mean anomaly at epoch: 343.3351°
orbit number at epoch: 20412

The dashed part of the orbit path shows where the satellite is in the earth's shadow,  

DLR